Weather History for KWJF - October, 2012

Change the Weather History Date:

Friday, October 12, 2012

  Actual Average Record
Temperature  
Mean Temperature 59 °F 64 °F  
Max Temperature 66 °F 81 °F 96 °F (1965)
Min Temperature 51 °F 47 °F 27 °F (2008)
Degree Days  
Heating Degree Days 6    
Month to date heating degree days 17  
Since 1 July heating degree days 17  
Cooling Degree Days 0    
Month to date cooling degree days 85  
Year to date cooling degree days 2259  
Growing Degree Days 8 (Base 50)    
Moisture  
Dew Point 43 °F    
Average Humidity 61    
Maximum Humidity 77    
Minimum Humidity 44    
Precipitation  
Precipitation 0.00 in 0.02 in 0.16 in (2007)
Month to date precipitation 0.00 0.12  
Year to date precipitation 1.74 5.37  
Since 1 July precipitation 0.04 0.46  
Snow  
Snow 0.00 in - 0.00 in ()
Month to date snowfall 0.0  
Since 1 July snowfall 0.0  
Since 1 September snowfall 0.0  
Snow Depth 0.00 in    
Sea Level Pressure  
Sea Level Pressure 30.08 in    
Wind  
Wind Speed 15 mph (WSW)    
Max Wind Speed 25 mph    
Max Gust Speed 32 mph    
Visibility 10 miles    
Events      
T = Trace of Precipitation, MM = Missing Value Source: NWS Daily Summary

Daily Weather History Graph

Daily Weather History Graph

Search for Another Location

Airport or City:

Trip Planner

Search our weather history database for the weather conditions in past years. The results will help you decide how hot, cold, wet, or windy it might be!

Date:

Astronomy

Oct. 12, 2012 Rise Set
Actual Time 6:56 AM PDT 6:21 PM PDT
Civil Twilight 6:31 AM PDT 6:46 PM PDT
Nautical Twilight 6:01 AM PDT 7:15 PM PDT
Astronomical Twilight 5:32 AM PDT 7:44 PM PDT
Moon 3:51 AM PDT (10/12) 4:28 PM PDT (10/12)
Length of Visible Light 12h 15m
Length of Day
11h 24m
Waning Crescent, 10% of the Moon is Illuminated
Oct 12
Waning Crescent
Oct 15
New
Oct 21
First Quarter
Oct 29
Full
Nov 6
Last Quarter

Hourly Weather History & Observations

Time (PDT) Temp. Dew Point Humidity Pressure Visibility Wind Dir Wind Speed Gust Speed Precip Events Conditions
12:56 AM 51.1 °F 42.1 °F 71% 29.96 in 10.0 mi WSW 9.2 mph - N/A   Clear
1:56 AM 53.1 °F 43.0 °F 69% 29.96 in 10.0 mi WSW 10.4 mph - N/A   Mostly Cloudy
2:56 AM 53.1 °F 43.0 °F 69% 29.96 in 10.0 mi WSW 12.7 mph - N/A   Clear
3:56 AM 53.1 °F 44.1 °F 71% 29.97 in 10.0 mi WSW 16.1 mph - N/A   Overcast
4:56 AM 52.0 °F 42.1 °F 69% 29.99 in 10.0 mi WSW 12.7 mph - N/A   Scattered Clouds
5:56 AM 52.0 °F 42.1 °F 69% 30.01 in 10.0 mi SW 8.1 mph - N/A   Overcast
6:56 AM 51.1 °F 43.0 °F 74% 30.03 in 10.0 mi WSW 11.5 mph - N/A   Mostly Cloudy
7:56 AM 53.1 °F 43.0 °F 69% 30.04 in 10.0 mi SW 10.4 mph - N/A   Partly Cloudy
8:56 AM 55.9 °F 43.0 °F 62% 30.07 in 10.0 mi West 13.8 mph - N/A   Clear
9:56 AM 59.0 °F 42.1 °F 53% 30.08 in 10.0 mi WSW 20.7 mph 24.2 mph N/A   Partly Cloudy
10:56 AM 61.0 °F 43.0 °F 52% 30.09 in 10.0 mi WSW 21.9 mph 27.6 mph N/A   Partly Cloudy
11:56 AM 63.0 °F 43.0 °F 48% 30.10 in 10.0 mi WSW 23.0 mph 32.2 mph N/A   Partly Cloudy
12:56 PM 64.9 °F 43.0 °F 45% 30.10 in 10.0 mi SW 17.3 mph 24.2 mph N/A   Mostly Cloudy
1:56 PM 64.9 °F 43.0 °F 45% 30.09 in 10.0 mi WSW 19.6 mph 29.9 mph N/A   Mostly Cloudy
2:56 PM 64.0 °F 45.0 °F 50% 30.09 in 10.0 mi WSW 19.6 mph 29.9 mph N/A   Partly Cloudy
3:52 PM 62.6 °F 44.6 °F 52% 30.11 in 2.5 mi WSW 19.6 mph - N/A   Haze
3:56 PM 62.1 °F 45.0 °F 53% 30.10 in 10.0 mi WSW 19.6 mph - N/A   Clear
4:56 PM 62.1 °F 44.1 °F 52% 30.11 in 10.0 mi WSW 16.1 mph - N/A   Partly Cloudy
5:56 PM 60.1 °F 42.1 °F 51% 30.12 in 10.0 mi West 19.6 mph - N/A   Clear
6:56 PM 57.0 °F 42.1 °F 57% 30.13 in 10.0 mi West 17.3 mph - N/A   Clear
7:56 PM 55.9 °F 43.0 °F 62% 30.14 in 10.0 mi West 11.5 mph - N/A   Clear
8:56 PM 55.0 °F 45.0 °F 69% 30.15 in 10.0 mi WSW 11.5 mph - N/A   Clear
9:56 PM 55.0 °F 44.1 °F 67% 30.16 in 10.0 mi WSW 11.5 mph - N/A   Clear
10:56 PM 54.0 °F 43.0 °F 66% 30.16 in 10.0 mi West 10.4 mph - N/A   Clear
11:56 PM 52.0 °F 44.1 °F 74% 30.17 in 10.0 mi SW 8.1 mph - N/A   Clear